Theta_e
310 305 304 310 314 317 318 318 315 310 313 313 316 315 314 314 318 323 329 332 335 328 328 328 327 328 329 331 334 336 338 338 338 338 339 339 338 339 338 336 338 339 340 345 347 349 348 348 349 349 348 348 348 350 352 355 356 357 359 362 360 362 363 362 359 357 356 356 357 358 356 355 356 360 363 361 362 361 360 362 362 365 362 365 366 366
310 304 305 311 316 318 318 315 312 310 311 312 314 314 313 314 314 323 326 330 334 328 325 329 328 328 329 333 336 338 336 333 336 338 339 339 338 339 339 338 338 341 342 344 346 348 348 349 349 349 349 352 351 354 356 355 356 358 357 360 361 363 364 362 358 359 359 361 358 358 356 357 357 360 359 359 362 360 362 365 366 365 364 365 366 365
303 302 308 312 319 317 314 312 311 310 309 311 311 312 312 314 318 319 327 331 333 329 325 327 326 328 329 332 335 336 334 334 337 339 339 341 339 339 339 339 339 340 341 342 344 346 347 349 350 351 351 352 354 354 355 357 356 357 357 360 364 364 364 364 363 362 362 362 364 361 360 358 357 360 362 361 362 363 361 362 364 365 366 366 365 365
300 304 310 317 318 315 314 312 310 309 310 310 310 308 308 314 313 312 323 327 331 326 325 326 324 326 331 334 335 336 337 337 339 342 342 343 341 339 339 340 339 339 340 341 342 342 345 347 351 351 351 353 354 356 355 355 356 356 358 360 365 366 365 366 367 366 366 362 363 363 361 363 361 360 364 365 365 365 363 360 363 366 366 365 363 363
303 307 312 317 317 316 314 313 310 310 309 311 310 310 309 310 314 314 319 326 331 329 327 327 323 324 328 327 329 334 338 338 338 339 340 342 345 344 343 342 342 339 341 340 341 342 342 344 347 350 351 353 353 354 355 355 355 356 357 360 363 366 366 367 367 366 367 364 362 362 363 363 361 361 361 360 359 363 364 360 361 361 366 364 362 363
306 312 316 314 315 316 314 310 310 311 308 309 310 310 309 311 313 316 320 319 320 320 323 324 310 314 326 328 328 332 334 332 336 335 334 336 340 343 341 341 342 342 343 342 341 341 341 343 346 350 351 351 352 352 354 355 355 357 358 360 363 365 366 365 367 366 365 362 358 357 355 353 353 353 354 355 356 358 355 355 359 362 363 362 365 364
307 313 313 312 312 313 313 311 313 311 308 307 308 312 310 309 314 315 315 316 309 308 320 325 312 308 323 324 327 331 332 332 336 334 335 334 338 342 342 342 340 339 340 342 342 341 340 343 345 347 350 351 349 352 353 354 355 356 359 360 362 363 364 366 368 367 364 362 359 358 355 353 353 352 353 360 359 358 359 363 362 363 365 366 364 364
310 310 310 312 312 311 311 309 312 311 308 306 309 311 310 309 311 315 312 309 310 316 318 323 321 314 314 322 329 332 330 329 330 332 334 335 337 339 342 341 341 340 340 341 342 342 342 344 344 345 348 348 348 350 352 353 354 357 359 360 362 363 363 366 367 366 364 362 360 359 357 355 354 352 354 361 363 364 364 363 363 364 364 367 368 366
309 307 308 308 310 310 309 312 313 312 309 307 309 310 309 308 309 316 313 310 311 312 312 318 323 312 310 319 328 330 327 326 330 332 332 334 335 337 339 342 343 342 343 342 341 341 341 342 344 345 346 347 348 350 350 352 354 357 359 361 362 362 364 365 367 365 364 363 362 360 357 356 356 355 355 358 360 361 362 362 365 366 365 366 368 369
309 310 310 310 308 306 311 314 313 312 309 312 310 311 310 310 309 313 312 310 312 308 305 314 321 310 309 321 324 327 327 327 328 330 332 334 336 337 338 340 343 344 343 343 342 344 342 343 344 346 347 346 347 349 351 351 354 356 358 359 360 361 363 364 366 365 364 363 362 360 359 358 356 357 357 357 357 360 363 362 363 363 366 363 363 367
310 314 315 311 308 310 311 312 312 312 313 311 310 310 310 310 310 313 313 314 310 304 306 312 317 314 305 316 322 319 323 327 330 333 335 336 335 337 338 340 340 344 343 342 343 343 344 345 345 345 344 347 347 350 350 351 353 354 355 358 359 361 363 364 365 365 362 362 361 361 361 360 357 357 359 358 359 360 362 362 363 363 363 364 363 363
309 310 309 311 314 313 311 308 311 312 312 311 309 308 308 308 312 311 310 313 304 302 309 313 314 316 304 314 325 326 332 331 331 332 333 334 335 337 337 338 340 343 344 344 344 343 344 344 344 345 346 346 348 349 349 350 351 353 354 356 359 360 362 364 363 364 361 359 361 361 361 360 359 360 359 361 359 360 362 362 362 365 365 364 363 365
305 306 309 310 314 311 309 307 307 309 309 308 308 308 302 302 304 300 304 301 301 302 309 312 313 311 310 316 325 329 330 331 334 334 334 335 336 337 339 338 341 342 342 344 343 343 342 342 343 344 346 348 349 349 350 348 350 352 354 356 358 359 362 363 363 363 363 361 360 360 360 360 361 360 362 361 361 362 361 361 362 365 364 365 364 362
302 307 307 308 310 312 310 303 303 303 306 305 304 304 300 297 298 295 300 303 303 307 312 311 316 308 315 320 328 327 331 332 334 336 337 337 337 338 339 339 339 340 341 344 344 342 343 343 343 346 347 348 350 351 351 349 350 352 353 357 357 359 362 363 363 363 362 362 362 362 361 360 361 362 362 362 360 361 362 364 363 362 360 363 362 362
295 297 303 306 303 311 309 308 307 305 305 305 307 305 303 302 299 296 299 297 299 303 308 315 310 307 308 314 328 332 333 335 334 335 337 339 340 341 341 341 341 340 341 344 345 343 342 343 345 346 348 349 351 350 350 349 351 354 354 358 359 360 362 362 361 362 362 362 362 362 361 360 362 361 360 361 361 362 362 361 362 364 362 362 364 363
299 300 306 309 308 311 307 310 311 308 306 307 307 308 303 301 308 300 304 303 302 302 304 309 307 315 316 330 333 333 334 335 335 335 335 337 340 342 341 341 341 341 341 344 346 344 344 345 347 347 348 351 352 353 351 350 353 355 357 362 361 360 361 361 362 361 362 363 363 364 363 361 362 362 361 361 363 364 365 364 363 365 367 366 366 368
301 297 306 307 309 309 309 310 309 310 299 305 305 300 303 309 307 304 307 308 307 305 302 312 311 314 324 323 328 333 331 334 334 333 334 336 338 341 340 341 341 341 342 344 346 344 345 345 347 348 350 350 351 350 351 353 356 358 359 361 362 361 361 360 363 360 361 363 363 363 363 361 361 359 359 358 361 359 363 364 365 362 363 366 369 366
299 299 305 306 303 308 311 311 311 310 310 307 300 304 309 311 309 305 299 303 301 298 302 307 306 308 309 306 329 330 330 331 332 332 333 336 339 339 338 339 340 341 344 346 345 346 346 346 347 348 349 350 351 350 352 355 357 359 360 361 360 360 359 358 359 358 359 360 361 362 363 363 362 359 357 357 359 360 362 364 366 365 363 363 364 365
305 298 303 306 306 308 310 310 308 311 311 307 306 312 303 298 297 304 303 296 296 296 300 304 307 307 310 312 320 325 328 330 332 335 334 334 338 337 338 339 341 342 344 346 345 345 345 345 346 349 349 352 354 354 353 355 356 358 359 359 356 356 356 356 354 356 358 359 358 359 361 361 361 360 359 359 360 362 361 361 362 363 364 365 368 368
306 299 300 306 306 308 308 307 300 304 309 311 311 307 309 306 301 299 301 304 304 299 298 301 305 303 312 313 324 327 330 332 333 334 335 335 336 337 338 339 339 343 344 344 345 348 346 347 349 348 349 352 354 354 354 356 355 355 357 357 357 359 360 357 354 355 355 356 356 355 359 362 363 363 359 359 362 360 361 362 361 362 361 364 365 365
304 307 296 303 308 307 301 304 302 305 302 303 304 304 305 304 308 306 305 302 301 300 300 300 300 306 318 331 331 330 332 333 333 332 335 335 337 338 339 339 340 340 343 344 345 345 345 345 345 345 348 351 354 354 354 355 356 357 359 358 359 359 360 360 357 355 357 357 356 357 357 357 360 360 359 358 360 361 362 362 363 361 361 364 365 364
304 304 298 302 302 300 303 308 308 307 308 306 304 303 305 302 300 298 297 305 303 301 298 299 298 308 324 331 331 331 330 332 334 334 334 335 336 340 341 341 341 341 343 345 346 347 345 345 344 345 347 350 351 350 351 353 354 356 357 358 360 361 360 361 359 358 361 359 356 355 356 357 358 359 359 357 358 360 360 360 362 364 364 361 365 365
308 305 303 299 301 301 305 308 310 310 310 309 308 305 307 306 305 301 293 300 303 305 306 306 302 310 326 329 331 331 331 333 335 334 334 336 338 340 342 342 342 344 344 346 347 347 346 346 348 346 346 347 350 351 352 354 354 354 356 357 360 360 361 360 360 362 362 362 359 358 356 357 356 357 357 355 355 355 356 358 360 363 362 360 361 364
311 304 300 300 304 306 307 309 310 309 309 307 308 309 307 304 305 303 302 304 302 303 301 303 301 308 323 329 330 331 333 335 337 336 336 337 339 342 342 344 344 344 346 348 348 349 348 350 352 349 347 348 349 351 351 354 356 356 357 357 359 360 361 361 361 361 363 363 362 360 359 357 355 354 355 353 353 353 356 356 358 360 360 360 359 359
301 305 302 297 297 300 302 305 305 309 309 306 306 309 310 310 308 307 307 310 303 303 303 301 297 308 324 328 329 330 331 331 333 335 337 335 338 340 342 344 345 345 345 346 349 350 350 349 346 345 345 344 346 350 352 351 352 356 357 358 358 359 361 362 362 362 362 363 362 362 358 356 355 354 354 354 352 352 353 355 355 359 360 359 358 359
305 304 302 294 292 290 290 292 295 300 303 307 309 309 310 309 309 306 300 304 298 306 307 302 302 318 324 326 326 328 329 330 331 333 335 337 336 337 339 341 342 343 344 346 347 347 347 348 346 346 346 346 349 349 350 349 351 353 355 356 358 357 360 362 362 362 360 361 360 361 361 357 356 356 355 354 353 353 353 353 354 356 359 359 359 360
306 306 306 302 298 296 298 300 303 306 305 303 305 307 308 310 311 309 307 303 299 304 304 306 308 315 321 321 324 326 328 327 328 331 331 334 335 337 339 339 340 342 343 346 346 346 346 346 346 347 348 348 348 349 350 350 349 349 350 351 354 358 358 359 361 362 361 362 361 360 359 358 358 358 357 358 356 355 355 354 353 355 356 359 359 360
307 302 303 307 305 303 303 303 304 305 303 304 304 304 308 310 312 308 304 302 313 305 299 310 314 311 318 322 324 325 327 327 329 331 332 333 335 335 336 336 337 339 341 341 342 343 344 345 345 346 346 346 346 348 348 349 351 350 352 351 355 356 356 357 359 360 360 359 360 359 359 358 359 358 361 361 362 361 359 356 355 355 356 358 359 359
303 299 302 303 303 304 304 304 305 304 304 304 305 305 306 311 313 310 309 312 314 306 301 315 317 309 315 322 325 325 327 327 330 331 334 336 335 334 335 334 334 335 337 338 339 341 343 342 343 345 346 346 346 346 347 347 349 351 351 352 352 353 353 357 355 353 354 356 356 357 358 358 361 363 363 363 364 366 363 360 359 357 356 357 357 357
305 300 303 304 302 303 304 305 305 304 304 304 304 305 306 309 312 313 313 314 313 314 316 316 319 318 323 325 326 326 329 329 330 332 333 333 333 334 333 333 333 334 335 336 337 338 340 341 342 345 345 346 346 347 347 347 347 348 349 350 353 353 354 356 356 355 354 353 354 356 359 361 362 360 362 364 365 366 366 364 362 358 357 356 357 358
303 301 303 303 301 301 303 304 304 303 303 302 304 305 306 306 311 313 314 315 314 312 316 312 319 319 325 330 328 329 330 329 331 330 330 332 332 331 331 332 332 332 332 334 335 336 337 339 340 341 343 345 347 346 346 347 347 348 349 350 352 353 353 355 354 354 354 353 354 355 355 356 356 359 359 360 359 362 365 362 361 360 360 359 359 359
304 302 303 302 299 299 302 302 302 303 302 302 303 304 305 305 306 311 312 315 314 314 315 316 316 316 323 327 327 328 327 328 327 327 328 330 331 330 330 330 330 330 330 330 332 333 333 333 335 336 336 336 337 340 342 344 345 346 347 348 349 352 353 352 352 352 352 353 354 354 354 354 354 355 356 357 358 359 360 360 358 359 361 360 358 361
304 303 300 300 296 297 302 303 302 300 299 297 300 304 309 310 310 314 316 317 316 316 314 310 317 324 325 326 324 325 325 327 328 327 327 329 330 330 329 328 328 328 328 329 329 330 330 330 331 333 333 335 335 336 337 337 336 337 342 345 348 352 353 352 350 350 351 352 353 353 354 355 354 355 355 356 357 358 359 357 357 356 358 360 361 360
305 304 301 303 296 298 301 302 303 299 290 293 311 313 312 308 309 307 309 314 316 318 318 319 321 325 326 325 322 322 323 325 326 328 329 329 327 327 329 329 328 328 328 329 329 330 330 330 330 330 331 331 332 333 334 333 334 335 338 338 340 342 344 345 344 345 347 350 351 352 355 356 356 357 357 357 358 357 355 355 354 357 358 360 361 360
302 302 301 304 297 296 300 302 297 292 294 308 310 311 315 314 312 312 314 314 315 318 319 318 320 322 325 326 325 323 323 323 323 324 326 329 329 328 327 328 329 328 326 326 327 329 330 330 329 330 330 331 331 332 334 334 333 333 333 334 335 338 339 341 342 342 343 344 346 348 349 350 353 354 355 356 356 354 352 352 354 356 358 357 356 357
301 301 304 300 300 301 298 296 287 292 305 306 305 307 309 309 310 310 313 314 318 318 320 320 321 322 325 325 323 321 320 320 320 321 322 325 329 328 327 327 327 327 326 327 327 328 328 329 330 329 330 334 331 330 330 331 332 330 332 333 332 331 333 335 337 337 338 339 340 343 345 347 347 350 352 351 352 351 350 351 350 350 353 355 357 357
304 304 302 300 303 294 296 296 296 304 302 303 303 304 305 305 306 307 305 312 318 320 321 321 322 322 323 325 323 323 323 321 317 316 320 323 324 326 328 327 327 326 326 327 328 327 327 328 329 331 332 332 331 332 332 332 332 332 332 331 331 331 331 332 332 334 336 338 339 340 341 342 342 343 344 345 344 344 346 347 348 350 352 352 354 355
308 301 303 299 300 300 296 294 296 295 292 300 305 308 310 309 309 311 308 309 318 321 323 322 320 320 320 321 322 323 325 319 312 312 317 321 322 322 325 324 323 322 322 324 327 327 326 326 328 329 329 329 329 330 332 333 333 332 331 331 331 330 330 331 331 332 334 336 338 341 342 343 342 341 341 341 340 343 344 345 345 348 352 354 353 351
307 306 303 300 299 299 296 293 291 289 296 304 306 308 310 312 312 312 308 303 315 321 323 323 321 322 320 319 320 322 320 315 313 313 317 321 323 325 324 324 322 321 321 321 322 322 323 323 324 325 327 327 326 328 329 330 330 329 328 330 329 330 330 331 332 332 331 332 336 339 340 341 341 342 341 340 339 340 341 341 343 345 347 348 348 349
304 302 300 298 298 299 298 294 292 297 299 306 308 310 311 313 311 310 296 297 308 318 321 322 322 321 319 319 321 321 317 313 311 313 320 323 324 324 323 322 325 321 321 322 322 322 323 323 322 322 322 322 323 325 327 326 326 326 325 325 328 328 329 331 333 334 334 333 334 337 339 339 338 340 340 340 339 339 340 344 345 346 345 345 346 345
299 301 299 297 297 298 295 296 298 300 307 310 311 311 312 314 308 298 293 303 311 314 321 323 323 323 322 320 321 319 320 322 318 319 322 323 321 321 322 322 323 323 322 321 321 323 320 320 320 319 320 322 322 322 324 324 324 323 324 324 325 326 327 330 333 333 334 334 334 334 336 337 338 338 340 341 340 340 340 342 343 345 344 346 346 345
300 299 299 298 295 296 297 295 297 300 306 313 314 312 315 311 298 295 308 316 316 316 321 323 322 323 323 322 321 322 322 324 322 321 321 322 321 321 321 320 320 320 321 322 322 321 319 318 319 319 320 321 321 322 322 324 324 323 324 323 322 324 327 329 331 332 332 332 332 332 333 335 337 338 338 341 342 341 340 341 343 343 345 346 345 344
298 297 297 296 298 296 297 295 293 288 306 314 314 313 314 306 305 311 313 315 318 319 321 322 323 323 324 323 324 324 322 320 320 320 320 320 321 320 321 320 321 319 319 319 320 320 320 319 318 318 319 320 322 323 323 323 323 323 323 322 323 323 326 327 328 329 329 330 329 331 332 333 334 335 337 338 340 339 339 340 342 342 344 344 343 343
305 298 297 299 301 296 294 292 292 303 310 314 313 305 310 312 313 315 314 313 318 322 322 323 323 325 323 323 324 322 321 320 321 322 322 321 320 321 321 322 321 321 318 317 318 319 318 317 317 318 320 320 322 322 322 323 322 323 322 322 325 325 326 327 327 329 328 327 327 328 330 331 332 333 335 336 337 337 337 337 338 338 340 342 340 338
308 304 306 299 305 301 299 302 308 313 313 315 314 314 314 316 317 316 317 317 317 322 325 323 324 325 325 325 323 321 320 320 321 322 320 318 319 320 320 320 319 318 319 320 320 320 318 317 317 318 319 320 321 322 322 323 322 322 321 323 326 327 326 326 326 326 326 327 326 326 327 327 329 330 332 333 334 334 334 335 336 334 336 336 336 337
309 311 313 308 305 309 310 310 312 314 314 314 316 315 315 316 317 317 318 318 319 322 325 323 324 324 324 325 321 320 320 320 320 320 320 320 320 320 321 320 320 319 317 317 318 319 318 319 317 318 318 318 319 320 322 322 323 322 323 325 326 327 326 326 326 326 326 326 326 326 326 324 323 325 328 329 330 331 331 332 332 332 332 332 333 334
310 310 308 304 309 301 297 311 312 311 314 314 314 317 318 318 317 318 319 319 320 323 325 324 324 324 325 323 323 322 320 321 319 319 320 320 320 320 319 318 318 319 318 316 318 319 317 317 317 316 318 318 320 320 320 320 322 324 325 325 324 324 326 326 325 325 326 325 324 325 325 325 324 322 323 325 325 327 328 330 330 331 331 331 330 330
305 312 307 306 306 302 305 310 312 313 314 316 315 315 315 317 318 318 319 321 322 324 325 325 324 323 323 321 321 321 319 320 321 319 318 318 319 319 319 319 319 320 320 319 319 319 318 317 316 315 316 317 319 320 320 321 321 322 324 323 323 323 323 323 323 323 324 323 324 324 324 324 321 323 323 323 324 323 323 324 327 327 327 327 326 327
311 310 303 308 304 308 310 311 313 313 313 315 316 317 317 318 318 317 317 319 322 322 323 324 325 323 323 322 322 321 319 320 319 318 318 317 316 316 317 318 320 321 320 318 319 319 320 320 319 319 318 317 319 318 319 320 321 322 322 322 323 323 322 321 321 323 323 323 323 323 325 324 324 323 323 323 327 324 322 322 323 326 327 325 325 324
307 303 308 306 301 301 305 308 311 305 307 311 313 316 317 319 319 318 317 317 318 321 323 322 322 324 323 323 322 320 320 320 320 319 318 317 317 317 317 318 319 319 318 319 319 318 318 318 318 317 317 318 319 318 318 318 319 320 321 321 322 322 321 321 322 322 322 322 322 322 322 323 322 323 323 322 322 325 323 319 313 318 325 324 320 311
306 309 307 303 303 303 308 313 315 313 312 313 315 316 318 319 319 318 317 317 316 318 321 322 320 319 320 321 323 322 321 321 321 320 318 317 317 316 316 316 313 314 315 318 318 317 317 317 317 318 317 318 318 316 315 315 315 316 317 319 320 321 321 321 320 320 319 320 319 317 321 321 321 323 324 323 323 323 323 324 321 302 305 315 317 309
Wind_Speed
9 9 12 11 10 14 13 12 4 4 3 1 4 5 7 7 3 3 6 11 10 8 7 11 8 8 7 9 11 13 11 12 11 12 11 12 11 11 11 12 12 12 12 11 13 12 12 12 11 9 9 9 10 9 9 9 9 8 7 7 7 7 6 6 6 6 6 6 5 5 6 6 6 5 4 5 5 5 4 5 5 5 4 4 4 4
9 10 12 13 12 14 8 2 2 3 4 4 6 6 6 7 5 2 6 9 9 7 6 8 9 8 8 8 11 12 12 14 14 13 13 13 13 11 13 12 12 11 10 13 12 12 13 11 13 11 10 10 11 10 10 10 9 9 8 8 8 7 7 6 6 6 6 5 5 6 5 5 6 5 5 5 5 5 6 5 5 5 4 5 4 4
10 11 10 14 8 5 3 4 3 5 3 7 6 6 7 5 4 2 4 8 8 6 3 7 8 8 8 8 10 13 14 14 13 13 12 13 13 12 12 12 12 12 11 13 13 13 12 13 13 11 10 10 11 11 11 10 10 9 8 7 7 7 7 6 6 6 5 5 4 4 4 4 5 5 5 5 5 5 7 7 6 5 5 5 5 5
9 10 11 11 7 8 5 3 5 5 5 5 7 4 8 9 9 5 5 8 7 4 1 7 7 6 9 7 9 11 13 12 12 11 12 12 13 13 13 12 12 13 13 13 14 14 13 13 12 11 11 10 10 10 10 11 10 9 8 8 8 7 7 6 6 6 5 5 5 2 2 2 1 5 4 4 5 4 6 7 7 5 6 5 5 5
7 5 10 8 9 8 8 7 7 7 8 7 6 8 3 8 4 3 5 6 6 6 1 5 6 5 9 9 8 10 11 10 12 11 7 9 10 11 11 12 12 14 13 13 14 14 14 14 13 12 11 11 11 11 11 11 10 8 10 9 9 7 7 6 7 7 5 6 6 4 4 4 3 3 5 5 6 6 5 6 7 7 6 5 5 5
7 4 5 9 10 10 8 8 9 8 9 8 7 6 6 5 5 7 7 7 5 5 8 8 6 8 11 12 11 10 10 12 12 15 16 14 11 12 13 13 13 13 13 13 14 14 15 14 13 13 12 12 11 11 11 11 11 10 10 10 9 7 7 7 8 8 6 6 6 6 5 5 4 5 5 5 6 6 7 6 7 8 7 6 5 5
3 9 9 11 12 10 10 8 9 8 8 7 8 9 4 2 5 6 5 5 5 5 8 11 7 3 3 10 12 12 13 13 12 15 17 14 12 12 13 13 14 15 14 13 13 14 15 15 14 14 13 12 12 11 10 10 10 11 10 10 10 8 7 7 7 9 6 6 6 6 6 5 5 5 4 3 4 5 4 4 6 5 5 5 6 6
4 7 6 8 12 11 10 10 7 8 7 7 10 5 3 7 6 6 4 3 6 1 1 8 8 6 4 6 11 14 14 14 14 15 16 15 15 15 14 14 15 15 15 14 14 14 14 15 15 15 14 12 11 11 10 10 10 11 11 11 11 8 8 7 7 8 7 7 7 7 6 5 5 6 5 5 4 4 4 4 5 5 5 5 4 5
11 9 8 10 10 11 11 10 7 10 9 3 4 0 5 3 5 8 5 4 7 5 6 6 7 5 6 4 10 13 13 14 15 16 16 18 18 15 14 13 15 15 15 14 14 15 15 15 15 14 14 13 13 11 10 10 10 11 11 11 11 9 9 8 8 8 8 7 7 7 6 5 4 3 5 5 4 4 4 4 4 3 5 4 4 3
8 8 10 7 8 9 9 11 4 8 11 5 1 1 2 5 4 5 7 6 4 5 9 8 9 8 5 6 10 13 13 13 15 17 17 18 18 16 13 14 15 15 14 14 15 15 15 15 15 14 14 14 12 11 11 10 10 11 11 12 12 11 9 8 9 9 9 9 7 7 6 6 5 4 3 3 5 4 3 4 4 4 3 4 5 4
6 3 3 8 9 2 5 6 8 9 10 8 3 7 5 7 7 4 6 5 5 9 11 9 10 9 5 9 8 9 9 10 10 11 12 15 16 16 14 12 14 14 15 14 15 15 15 14 14 14 15 14 12 11 11 10 10 11 12 12 13 12 9 9 10 10 10 9 8 7 7 7 6 5 4 3 4 4 4 4 4 4 4 3 4 5
7 6 8 6 7 1 3 6 5 6 6 6 7 8 7 7 3 5 6 5 8 9 9 3 8 8 8 6 8 7 4 7 8 11 14 16 18 17 17 16 14 13 13 14 14 15 15 15 15 15 14 14 13 11 12 11 10 11 11 12 13 12 11 9 10 10 10 10 9 8 8 8 7 6 4 4 5 5 5 5 4 3 4 4 4 4
9 9 5 8 6 8 10 7 8 7 7 8 8 8 11 8 6 10 7 10 10 9 3 4 6 7 9 3 5 8 6 6 5 5 11 15 17 18 18 19 16 13 13 13 13 14 14 15 15 15 14 12 12 11 12 12 11 11 11 13 13 12 12 10 10 11 11 10 9 9 9 8 7 6 5 5 5 5 5 5 5 5 4 4 4 5
7 11 11 8 8 9 9 10 8 8 9 10 11 10 10 11 11 10 11 8 8 12 7 4 2 8 3 3 4 5 4 3 5 5 6 11 15 17 18 18 17 16 15 13 14 15 14 14 14 14 13 12 12 14 13 13 12 11 11 12 13 12 12 11 11 11 11 11 10 9 8 8 7 7 7 6 6 6 5 4 4 5 5 5 5 5
8 9 11 11 9 11 12 11 7 6 10 11 10 11 10 11 10 12 10 12 12 8 9 5 4 5 10 4 4 3 2 3 5 7 7 7 11 14 16 17 19 20 19 15 14 15 16 15 15 13 12 13 13 14 13 11 11 11 11 12 13 13 13 12 12 11 11 10 10 9 8 8 7 7 7 6 5 5 5 5 5 4 4 4 4 4
6 6 9 13 3 13 13 14 10 6 5 9 11 9 11 13 9 11 8 10 8 9 8 8 7 2 1 7 5 2 3 3 3 7 8 9 9 12 13 15 15 18 19 17 15 16 17 16 15 13 13 13 13 13 12 13 12 12 11 13 13 13 13 12 12 11 11 10 9 10 10 9 8 6 7 6 5 5 5 5 5 4 4 4 3 4
7 9 10 7 5 9 11 12 13 9 8 9 9 13 11 7 9 9 9 8 9 10 10 6 8 8 5 6 4 5 3 3 4 7 9 10 10 12 12 13 14 16 17 16 14 15 17 16 15 14 14 13 13 12 12 11 12 13 13 13 13 13 12 13 12 12 11 10 10 10 10 10 9 9 9 8 8 8 7 6 6 6 6 5 4 4
6 5 11 8 12 10 2 3 9 12 11 2 10 9 8 5 9 8 10 8 8 9 8 9 11 10 8 5 0 5 5 4 4 6 9 10 10 11 11 13 15 16 16 15 15 14 15 14 15 14 13 13 12 13 12 13 13 12 12 13 14 13 14 13 13 13 12 11 11 10 11 11 10 9 10 9 8 8 7 7 6 6 6 6 6 5
4 7 8 3 2 9 6 7 8 11 11 10 4 6 11 9 11 9 6 12 11 11 9 10 11 12 10 6 7 6 5 5 5 5 7 9 9 10 11 14 15 14 13 11 12 12 13 13 13 11 11 11 11 11 12 12 12 11 12 12 13 14 15 14 12 12 11 11 10 9 11 11 11 10 9 8 8 8 8 8 8 8 6 6 6 6
4 6 6 7 6 10 9 10 10 11 12 12 6 6 9 7 10 10 11 9 7 10 11 11 10 9 8 6 5 7 5 3 5 5 6 7 8 8 9 13 15 15 14 14 13 10 10 11 11 8 7 9 10 10 10 11 11 11 11 11 11 11 11 12 13 11 12 12 11 10 10 10 10 10 9 9 9 8 9 8 8 8 8 7 7 7
4 2 5 9 6 7 10 10 11 11 13 12 11 9 8 8 3 7 8 13 9 9 10 9 9 9 4 5 7 7 5 3 3 4 4 4 5 6 8 10 13 14 13 13 13 13 11 11 10 8 6 7 8 8 8 9 10 9 9 9 10 10 11 11 12 12 11 10 11 11 11 11 11 11 10 11 10 9 9 8 8 7 8 7 7 7
3 5 5 2 8 11 4 1 5 8 3 13 11 11 7 10 10 8 9 11 13 9 7 10 9 5 6 2 5 6 4 4 4 5 4 4 4 5 6 8 10 11 12 13 13 12 11 9 9 9 7 6 7 8 9 8 9 9 10 9 9 9 9 10 10 10 9 9 10 11 11 11 10 10 10 11 11 11 10 9 8 8 7 8 8 8
5 4 6 7 3 1 7 2 2 3 3 4 7 9 11 8 9 10 9 8 9 11 9 7 9 3 2 4 4 5 5 5 5 6 5 4 3 4 5 6 8 9 10 11 13 12 11 10 8 7 8 8 8 8 9 8 9 9 10 10 9 10 10 10 10 9 8 9 9 11 11 10 10 10 11 11 11 12 12 11 10 9 9 9 8 8
3 4 4 4 1 4 6 5 5 4 4 10 7 2 5 11 7 9 8 6 10 11 11 7 9 2 4 4 4 5 5 4 3 5 5 5 4 4 4 6 7 10 10 11 10 10 12 11 9 8 8 7 6 7 8 6 5 7 8 9 9 10 11 10 10 9 9 8 9 10 10 10 9 10 11 11 10 12 11 10 10 10 10 9 8 8
6 2 5 6 5 6 7 7 7 6 5 2 2 1 3 6 7 7 8 4 7 11 12 10 12 6 6 5 5 6 6 5 5 4 4 5 4 3 4 5 6 8 10 11 12 12 13 11 10 8 7 5 3 2 5 7 7 6 6 7 8 9 10 10 9 9 10 10 10 9 9 10 10 10 10 10 10 11 11 11 10 9 10 10 9 9
5 1 4 7 8 9 8 9 8 6 4 4 2 1 1 4 5 7 11 9 7 6 9 10 8 6 7 5 6 6 7 6 4 3 4 4 5 4 3 4 5 7 8 10 11 13 14 13 8 7 7 8 7 6 5 4 5 6 5 5 5 6 8 9 9 9 9 9 9 9 10 10 9 9 10 10 9 10 10 10 10 9 9 9 9 9
3 3 4 5 6 5 1 5 4 6 2 2 3 1 2 2 3 8 6 9 11 8 9 11 8 4 5 8 8 8 7 7 5 4 5 5 6 5 4 3 3 3 6 8 8 9 11 12 11 8 7 6 8 7 6 7 8 7 6 7 6 6 6 7 8 8 8 9 9 9 9 10 9 8 9 9 9 8 9 9 10 10 9 9 9 10
4 5 4 6 7 6 9 5 4 3 4 5 5 4 4 4 3 6 10 6 6 5 9 7 8 7 6 10 9 9 8 7 7 6 6 6 6 6 6 7 8 7 7 7 7 7 8 8 9 10 8 8 7 6 6 6 6 7 8 9 8 7 6 4 5 7 7 8 9 9 9 9 9 9 8 7 7 8 8 9 9 8 8 8 9 10
5 6 3 6 5 4 7 8 5 1 3 5 5 7 7 7 6 4 5 3 5 7 3 6 5 11 6 9 10 9 8 7 8 6 5 8 8 8 8 7 8 8 8 8 7 7 7 8 8 8 10 10 10 10 10 9 7 6 6 7 7 9 11 10 9 8 6 6 6 6 5 5 6 7 7 7 7 7 8 8 8 8 8 8 8 8
4 5 2 5 6 7 2 3 4 8 4 5 4 6 5 8 5 5 3 3 4 3 4 4 3 4 3 8 9 9 8 8 7 5 5 7 7 8 8 8 8 9 9 9 9 9 9 8 6 5 7 8 10 11 11 10 9 10 10 10 9 9 8 10 11 9 8 9 9 8 6 4 5 6 7 7 8 8 8 8 9 10 9 9 8 8
5 1 3 5 7 9 8 4 3 6 10 9 7 6 5 5 6 5 4 6 6 5 2 2 4 4 6 7 9 10 8 8 8 9 7 8 8 7 8 9 9 10 10 9 9 9 10 10 10 9 8 5 5 7 6 5 7 9 10 10 10 10 9 8 8 8 8 8 8 6 6 5 5 4 5 7 8 8 8 8 8 8 8 9 8 8
4 2 3 6 7 8 8 8 3 4 6 9 9 6 4 4 6 8 5 7 6 2 2 3 6 5 6 7 9 9 8 9 10 9 8 7 8 8 9 9 10 11 10 9 9 8 9 9 9 9 9 9 10 9 6 5 3 3 6 6 9 9 8 9 8 9 9 9 8 9 9 8 10 10 10 9 8 6 5 5 8 8 8 8 9 8
4 4 5 6 8 7 7 5 4 2 4 8 11 4 1 2 2 2 3 4 4 4 5 6 2 4 7 7 8 9 7 9 9 8 8 7 8 9 10 10 11 11 10 10 10 9 9 9 9 9 9 9 9 9 9 9 9 7 6 5 1 4 6 6 7 9 9 9 9 9 10 11 11 11 12 12 11 9 6 6 8 11 10 10 9 9
3 4 5 2 7 4 6 6 4 6 7 5 6 5 3 5 6 5 6 6 5 4 4 4 3 1 7 8 8 9 9 8 8 5 3 7 8 8 9 11 11 11 11 11 10 11 10 9 9 9 11 12 11 10 8 8 8 7 7 7 8 8 7 7 7 6 5 2 2 7 8 8 8 9 9 9 7 7 8 8 9 9 9 8 9 9
3 3 4 1 6 5 5 5 8 10 5 7 3 6 5 5 5 5 5 3 4 2 3 3 2 3 5 6 8 9 9 10 10 8 6 6 8 8 10 11 12 12 12 12 10 11 11 11 9 8 9 11 10 9 9 9 8 7 7 8 9 8 8 8 8 7 6 5 4 4 3 1 4 6 7 7 7 7 8 8 7 7 7 7 8 8
5 4 2 5 5 2 5 7 7 5 7 4 6 4 6 5 2 6 2 2 3 3 3 3 1 4 6 7 11 10 10 11 10 10 9 7 7 10 10 11 12 12 13 11 12 10 11 9 9 9 8 9 10 8 8 9 8 9 7 7 9 8 8 7 8 8 7 7 7 6 5 3 2 1 1 2 6 9 8 6 6 6 7 7 7 7
5 5 5 4 2 7 5 6 5 4 5 6 4 6 6 5 7 5 3 3 4 1 1 3 5 6 8 11 10 10 10 9 8 7 8 8 9 8 9 12 13 13 13 12 12 11 9 8 9 9 8 8 9 8 8 8 7 8 8 9 7 7 7 8 7 7 7 8 7 6 6 6 5 5 4 4 6 4 2 7 7 6 6 7 7 8
3 6 4 5 3 5 6 6 5 5 7 6 6 4 2 2 4 5 5 2 3 3 2 4 5 8 8 9 9 10 11 9 5 3 3 7 8 10 13 15 13 11 11 11 11 10 10 9 9 9 9 10 10 9 7 7 7 9 8 9 9 9 8 8 8 6 7 7 7 6 6 6 6 6 6 6 7 6 7 7 4 3 2 4 6 8
2 2 4 7 4 5 6 7 5 4 4 5 5 6 5 3 3 1 6 2 4 5 2 0 4 8 9 8 10 11 10 9 7 5 5 8 7 8 10 10 12 12 12 11 10 10 9 8 8 8 8 9 10 9 8 8 8 8 8 8 8 8 9 8 7 7 7 6 6 7 7 6 5 5 5 5 6 5 6 7 5 5 3 4 5 5
3 2 3 6 6 5 6 6 4 1 3 6 8 7 7 3 4 4 8 3 7 8 2 1 4 7 9 6 6 8 6 7 6 6 7 8 9 7 9 11 11 12 12 11 11 10 9 8 8 9 9 9 8 8 8 8 8 8 7 7 7 8 8 8 7 7 7 6 6 6 7 7 7 7 6 5 5 4 5 4 3 3 5 5 4 4
1 1 2 4 3 3 3 5 2 5 6 8 9 9 6 3 2 7 5 5 7 7 7 2 4 8 9 10 8 6 3 4 9 9 7 7 8 8 6 8 10 10 11 11 11 9 8 7 7 8 8 6 6 6 7 7 8 8 7 7 7 8 8 7 6 7 7 7 7 8 7 7 7 7 6 6 5 5 4 3 4 4 6 5 4 3
4 2 2 3 4 3 2 4 0 7 3 7 8 7 5 6 5 3 6 5 7 8 5 4 3 7 10 11 8 3 4 10 13 11 12 10 9 8 9 10 10 11 10 10 9 9 8 8 8 8 8 6 6 6 7 7 8 7 6 7 7 7 6 6 6 7 7 8 8 8 8 8 7 6 6 6 5 5 5 4 3 4 5 5 5 7
5 5 2 1 1 4 3 4 3 2 5 9 12 3 9 4 2 5 7 7 7 6 5 4 4 6 8 9 7 6 9 9 12 13 12 12 11 12 12 9 8 7 7 6 7 8 7 7 7 7 7 6 7 6 7 8 8 7 7 7 7 5 5 5 6 6 6 7 7 7 7 7 8 6 5 6 7 7 7 5 5 5 4 6 6 6
3 5 0 2 3 4 3 2 2 6 6 8 8 5 5 6 6 6 6 6 7 5 3 3 4 6 7 7 7 9 11 12 10 11 12 14 13 12 13 11 8 7 5 6 6 5 7 7 7 7 7 7 7 7 6 7 7 7 7 7 5 5 5 5 5 4 5 6 6 6 6 6 7 6 6 6 6 7 7 6 6 6 5 4 5 5
3 4 5 3 4 5 5 4 4 3 4 4 4 4 4 5 4 5 5 6 6 4 4 3 3 5 6 4 8 10 9 9 9 9 9 9 12 13 12 12 11 10 9 7 7 5 4 6 8 8 8 7 8 7 6 6 6 7 7 5 4 5 5 5 4 4 5 5 4 4 5 5 5 5 5 5 6 6 6 6 6 5 5 5 5 5
2 2 1 5 2 1 2 3 1 1 3 4 3 3 4 5 5 5 6 5 5 4 3 3 1 4 5 7 11 7 6 5 6 8 9 9 8 9 10 10 9 9 9 8 5 5 5 6 8 9 9 8 7 6 5 5 5 6 5 4 4 5 5 4 5 5 5 4 4 4 4 3 4 5 6 5 5 5 5 5 5 5 4 4 5 5
4 2 4 4 4 3 2 3 3 3 3 4 3 3 2 5 6 6 6 6 5 5 3 1 1 2 5 9 10 9 7 5 4 5 6 7 9 8 8 9 9 9 10 9 8 5 3 5 7 8 8 7 6 5 5 5 4 5 4 3 4 5 4 4 4 4 3 4 4 4 5 5 5 4 5 5 4 4 4 4 4 4 3 4 4 4
5 2 5 3 2 6 3 4 4 3 3 3 3 3 4 5 6 7 6 5 4 4 4 4 3 5 9 11 14 12 11 10 9 7 5 5 5 7 6 6 6 7 7 8 7 6 7 8 8 7 5 4 5 5 5 4 4 5 5 5 5 5 4 4 4 4 5 5 4 4 4 4 4 3 4 4 4 5 4 4 3 4 4 4 4 2
5 3 2 2 4 0 3 4 4 3 3 5 6 6 6 5 5 7 8 8 7 6 5 3 2 4 7 11 13 12 11 10 10 11 7 4 4 5 5 5 3 3 5 5 4 4 5 6 7 6 6 6 4 4 4 5 5 5 5 5 4 4 4 4 4 3 3 3 3 3 3 3 3 4 3 3 4 5 6 6 5 4 5 7 6 6
4 7 2 3 6 7 2 4 2 4 2 5 5 6 6 6 7 7 7 9 9 7 5 5 4 5 5 10 12 13 14 12 11 11 10 9 8 7 5 4 4 3 3 3 3 4 5 6 5 5 5 5 4 4 4 4 5 5 5 4 4 4 4 3 2 2 3 3 3 4 3 3 3 4 4 3 3 3 6 8 8 7 5 5 6 5
6 3 3 5 5 3 5 2 3 1 3 4 4 4 5 5 5 7 8 8 8 7 6 5 4 4 4 4 6 9 12 11 12 12 12 10 11 11 11 9 8 4 2 3 4 5 5 5 5 6 5 4 4 4 3 3 3 4 5 5 4 4 4 3 3 3 3 3 5 6 5 4 4 4 3 4 4 3 2 5 6 5 8 7 4 4
Wind_Direction
179 201 194 202 204 197 203 217 289 357 340 298 211 191 195 193 182 74 128 149 173 180 176 168 201 176 172 177 180 182 189 198 196 187 185 186 180 183 186 183 183 179 179 169 171 175 174 169 166 165 167 168 167 171 166 175 174 174 173 163 167 167 165 160 166 166 173 168 170 170 177 165 166 169 162 179 167 163 154 142 159 164 169 157 160 163
205 215 201 205 208 198 202 253 220 241 286 261 213 216 178 203 172 132 138 156 169 223 153 177 188 185 182 181 182 174 180 196 198 188 188 186 186 184 187 187 186 178 179 172 172 175 174 172 166 168 170 171 168 173 171 180 177 175 179 171 170 169 170 174 171 169 178 176 180 175 177 170 151 159 174 166 173 155 131 144 153 176 153 156 164 160
206 217 196 204 184 160 160 201 221 244 241 230 241 207 222 144 104 130 131 157 170 223 150 184 201 183 179 177 173 180 184 198 201 194 193 187 188 185 185 191 187 180 181 176 176 177 176 173 171 171 173 174 175 174 177 179 179 176 183 177 174 174 175 175 172 174 176 177 179 192 161 182 145 154 169 148 145 145 142 151 160 160 153 164 162 162
196 212 212 186 146 192 181 212 217 215 244 229 221 207 224 142 190 166 129 161 166 215 104 179 216 189 158 175 174 190 193 194 204 216 201 200 191 191 188 190 190 184 180 182 180 182 179 176 174 174 175 177 178 177 179 182 180 180 180 182 181 176 183 174 171 180 172 172 165 171 162 115 124 140 122 118 140 152 143 149 153 158 162 176 164 168
204 192 186 141 181 196 200 195 214 216 208 218 266 239 167 158 80 163 145 159 159 201 207 189 224 204 181 185 188 192 196 192 192 202 223 208 211 196 189 192 195 191 182 186 184 184 182 181 179 176 176 177 182 183 182 186 181 186 179 182 183 180 184 180 169 177 168 158 168 159 143 153 125 129 149 164 158 158 157 152 161 156 165 173 170 166
184 79 96 184 179 197 214 202 213 224 221 191 211 267 34 85 129 110 135 161 190 196 210 196 200 219 186 195 194 179 183 198 191 192 203 203 212 208 195 192 192 197 187 190 187 186 182 181 178 177 179 182 183 184 185 188 183 185 178 178 182 184 186 185 173 174 170 171 174 168 167 164 169 158 168 171 159 158 170 167 148 145 168 167 167 170
180 133 192 196 191 191 211 221 197 229 237 221 172 201 217 204 128 130 149 222 223 246 159 208 232 164 143 197 194 180 187 193 185 196 201 203 206 209 203 196 192 193 189 190 191 188 185 182 181 180 183 185 185 183 184 186 183 183 180 178 181 185 186 185 175 173 174 174 180 182 179 170 169 166 157 164 151 146 151 116 138 142 150 163 173 163
127 148 157 184 191 200 203 217 182 213 242 210 82 208 229 220 179 172 157 225 269 72 170 224 213 265 223 206 191 183 184 190 196 199 199 198 202 207 205 199 195 196 194 189 190 191 190 184 185 184 184 189 187 180 182 183 182 180 182 178 182 182 187 186 176 178 180 180 183 184 191 170 183 172 150 157 142 124 121 135 151 151 148 156 181 149
184 166 178 175 194 200 211 218 181 209 236 62 56 138 242 241 242 180 215 217 259 260 222 204 193 230 233 205 182 187 190 198 198 197 199 200 202 201 206 206 197 198 195 193 190 190 192 186 191 188 187 191 189 181 181 185 178 176 180 181 182 184 186 185 181 181 184 191 184 187 185 180 189 175 159 162 157 143 150 144 139 155 145 152 161 173
201 192 182 186 194 197 209 208 171 207 228 179 135 323 266 256 273 213 213 228 216 244 244 200 195 233 153 171 175 188 201 197 202 202 201 199 199 194 194 209 207 197 195 198 195 192 192 190 194 191 191 193 187 181 184 186 177 176 179 182 184 187 188 185 183 187 188 192 189 192 197 185 185 184 175 175 148 159 159 162 155 159 167 175 172 172
83 71 8 216 203 203 164 194 207 217 240 28 240 236 218 224 229 207 238 250 236 236 250 203 195 234 231 186 178 175 211 209 193 193 196 198 197 183 186 197 215 201 193 195 197 195 194 195 195 193 196 191 186 185 182 186 179 179 178 181 187 188 190 185 186 189 191 194 194 195 196 196 193 187 175 187 175 177 179 187 176 175 178 199 183 189
178 146 199 194 239 216 206 156 208 220 259 227 222 222 226 213 224 243 226 228 241 237 228 150 204 220 251 144 152 180 167 185 189 187 193 196 196 186 186 192 206 208 195 193 197 197 193 195 196 197 197 190 188 184 180 190 184 182 180 180 185 189 192 189 189 192 194 195 196 201 200 200 201 195 191 195 197 192 194 194 190 185 182 194 192 208
206 204 173 163 198 207 192 225 160 200 198 214 226 219 221 204 208 222 211 219 226 229 166 212 210 220 236 298 94 133 146 144 181 182 190 195 195 193 188 188 187 205 203 193 195 196 195 197 195 197 194 189 186 191 185 191 189 186 181 181 185 188 191 193 193 195 197 197 196 199 201 202 203 200 202 201 204 199 201 202 198 189 196 191 206 204
194 205 186 194 177 204 223 211 164 195 196 209 213 208 211 213 207 223 216 226 234 237 201 235 167 250 252 186 99 156 160 173 165 185 190 193 193 192 189 184 186 190 205 198 194 194 194 198 197 196 194 186 190 192 189 191 190 185 183 182 186 187 190 193 197 196 198 200 198 197 201 202 198 204 203 202 204 200 203 203 214 212 198 198 210 204
195 168 199 196 205 170 213 230 203 212 176 209 213 217 218 228 215 216 221 219 225 224 211 153 214 222 211 112 119 107 184 209 222 219 196 189 190 188 190 185 184 185 202 200 194 192 190 196 196 192 191 189 195 194 192 192 189 185 184 181 186 188 188 192 196 197 200 201 201 198 201 201 202 203 205 206 209 207 205 213 205 214 229 211 203 209
260 281 100 185 327 165 204 211 252 242 193 199 209 223 229 223 225 238 227 235 222 222 213 183 227 139 210 134 129 167 169 199 202 210 196 181 180 175 184 189 185 188 193 195 194 191 189 191 193 190 190 194 195 195 194 190 186 187 182 180 185 188 190 192 195 199 200 203 202 200 201 204 207 208 210 207 205 208 216 213 230 210 228 241 210 209
147 238 135 171 187 199 209 198 207 229 225 166 201 212 221 229 238 242 261 256 262 256 225 191 221 236 120 185 157 168 187 178 195 191 190 177 173 171 180 181 187 189 192 191 194 193 189 190 192 192 193 194 196 196 196 187 184 185 181 181 183 187 191 194 195 200 201 200 204 202 203 207 206 208 212 209 203 213 207 218 219 223 218 215 224 213
290 163 131 181 189 196 279 230 219 196 258 142 213 215 209 244 282 251 230 195 230 234 226 200 215 229 209 206 146 190 186 144 148 174 175 171 166 175 177 179 183 188 187 187 190 195 188 190 190 193 196 197 198 198 193 187 188 186 187 184 182 185 192 196 196 201 201 201 204 203 205 207 212 211 215 219 210 212 213 207 219 228 214 219 213 219
287 252 160 167 132 151 172 202 203 223 226 232 291 176 194 180 217 212 264 220 210 223 237 190 213 237 222 190 169 169 156 129 130 118 155 164 172 180 177 173 182 177 179 180 182 184 184 185 184 188 194 196 197 194 191 188 188 188 192 193 192 192 193 197 199 200 202 202 203 203 204 205 207 214 218 221 219 216 213 218 209 219 218 212 209 206
241 284 147 161 204 148 185 195 209 184 196 240 277 246 209 246 226 207 212 258 235 227 231 198 204 233 208 218 132 124 99 101 109 157 159 158 171 181 175 176 177 170 172 179 172 161 169 161 159 159 178 181 185 186 186 186 190 193 193 190 198 194 193 198 203 198 203 203 206 205 201 204 208 210 218 221 220 216 214 217 223 213 208 214 206 201
266 267 265 149 152 167 198 186 223 190 179 197 214 235 196 234 276 245 204 227 229 241 229 230 204 223 104 53 97 114 109 113 156 140 157 156 170 167 174 177 173 176 176 184 179 173 159 148 147 156 179 186 186 184 185 184 188 186 185 190 190 190 190 197 204 202 201 205 206 206 205 205 204 211 212 218 216 219 217 216 223 217 223 198 212 204
287 250 238 226 189 208 146 83 340 333 261 195 198 223 219 209 206 215 226 205 236 235 235 231 239 171 81 65 102 106 110 139 140 139 135 164 168 152 157 180 170 177 173 175 177 165 144 131 136 157 176 174 179 180 184 180 179 183 183 184 182 185 189 196 201 207 201 208 206 208 207 211 206 209 213 217 216 217 217 215 212 218 224 217 205 213
330 296 272 238 228 249 41 90 26 303 232 300 225 220 217 215 213 213 234 196 218 237 262 265 277 124 64 92 94 109 126 150 161 161 160 137 121 155 160 161 166 164 175 173 176 170 145 134 132 147 159 173 183 184 183 181 181 182 184 183 182 183 186 191 196 195 200 206 210 209 211 215 213 208 214 217 218 218 217 210 211 211 218 224 210 204
274 250 248 242 122 129 131 118 150 169 201 203 193 304 234 224 230 234 226 265 234 214 225 212 238 174 122 99 121 125 108 116 156 147 156 142 134 152 156 151 156 172 175 171 164 155 141 135 129 130 140 152 179 180 176 168 170 182 184 186 186 189 186 187 191 192 196 202 209 213 215 215 222 218 213 216 216 220 220 221 210 204 215 221 222 208
267 140 282 218 227 191 150 165 149 143 187 207 236 357 317 285 273 286 295 289 263 227 215 223 231 183 128 142 149 144 135 145 150 154 156 144 128 118 137 153 159 166 169 166 160 155 143 142 145 146 148 133 104 130 126 142 154 169 184 189 190 190 185 184 186 188 192 198 203 211 220 220 217 219 221 224 221 215 216 222 220 207 210 216 221 212
273 261 232 230 222 213 204 195 169 171 166 138 82 283 8 271 248 233 229 228 248 245 230 226 221 90 129 173 161 168 159 126 115 142 132 126 127 110 123 111 137 163 167 165 165 163 157 161 147 153 157 158 162 164 140 154 177 164 159 183 185 199 192 185 182 185 192 195 202 203 212 222 220 220 221 224 226 226 218 217 219 217 204 215 219 216
283 244 245 243 250 236 168 52 54 275 147 177 69 46 318 295 276 245 271 254 228 214 218 231 258 125 168 181 171 170 182 154 141 170 148 132 125 120 107 132 121 116 157 162 170 179 181 177 177 168 155 153 160 149 151 168 181 180 194 204 204 200 193 185 178 182 188 188 195 197 202 209 219 223 222 218 225 229 224 220 218 218 218 209 216 216
254 255 227 255 240 197 138 154 99 358 73 53 41 43 19 347 307 239 222 240 1 278 238 204 194 210 196 175 173 166 173 165 156 171 149 132 138 128 118 83 86 102 101 104 105 131 160 180 188 182 172 166 158 154 156 166 180 181 180 189 187 179 185 189 180 169 176 188 198 198 199 210 210 216 218 226 228 231 230 228 222 220 220 222 215 216
289 264 205 237 200 215 199 174 188 241 16 349 4 23 24 6 6 284 269 326 315 247 274 3 278 233 193 166 157 155 163 174 161 158 146 125 121 122 129 122 109 109 120 115 119 139 160 159 176 178 176 182 179 178 175 176 176 168 169 181 183 183 198 199 199 204 191 189 206 220 223 225 221 214 213 216 221 226 235 232 227 224 224 219 226 221
292 245 280 266 226 198 197 255 238 248 245 282 341 342 16 7 13 349 325 348 315 304 321 294 81 291 96 141 139 135 140 145 137 116 128 132 127 123 119 123 124 120 109 99 96 86 84 91 108 157 160 168 172 178 183 182 179 182 182 190 190 194 197 200 208 201 191 194 199 198 192 199 223 230 228 220 213 216 220 230 229 222 215 215 217 228
285 152 306 262 245 220 213 199 259 270 262 267 285 306 313 349 1 13 334 3 307 231 278 243 186 131 88 110 121 129 132 130 142 145 134 120 129 123 114 107 101 101 95 94 92 88 87 91 97 97 99 115 151 174 180 177 198 194 194 197 194 193 187 190 196 199 196 198 194 190 184 184 197 193 222 233 237 225 215 218 225 225 219 215 213 220
283 253 219 246 241 229 209 233 279 317 294 277 275 276 300 314 350 14 360 7 330 329 308 181 190 164 99 113 116 144 141 150 139 135 134 132 119 117 119 114 109 103 101 98 97 93 91 93 93 94 91 86 77 74 96 119 129 214 198 202 210 206 197 201 207 208 206 205 198 206 206 200 213 217 218 218 219 223 219 223 223 220 216 215 210 211
348 303 243 214 237 232 203 226 222 248 287 262 247 251 34 63 33 72 57 32 14 313 260 216 80 54 148 150 157 149 162 154 141 141 142 122 105 119 120 111 108 106 105 105 104 103 98 94 89 90 88 84 81 78 65 68 68 58 58 65 125 194 198 208 221 224 225 222 218 217 212 209 212 213 218 215 214 204 183 194 216 218 217 216 217 208
292 288 262 266 252 240 203 208 190 215 210 215 62 22 355 341 359 356 36 20 39 317 11 356 43 70 157 173 166 162 162 144 134 89 63 118 117 125 127 118 112 110 106 103 106 106 101 95 91 84 84 82 80 74 62 66 75 71 80 77 75 81 85 92 85 81 80 87 240 240 230 216 216 218 216 218 206 188 195 205 215 222 220 217 213 212
316 275 270 326 252 234 205 209 215 219 223 83 35 33 1 358 344 5 73 52 21 5 318 233 169 205 189 175 154 116 104 97 70 74 56 110 129 132 128 125 121 119 107 105 102 104 103 100 96 95 95 95 90 89 84 69 59 58 61 75 80 84 89 87 89 81 81 81 72 66 74 144 228 234 228 217 201 194 201 212 224 229 233 227 220 217
342 285 304 232 262 250 222 217 222 221 88 100 77 42 13 293 329 268 106 322 31 2 301 271 165 161 180 160 123 116 120 106 88 59 45 43 130 137 134 127 121 119 116 111 106 98 100 101 101 97 98 105 101 93 94 105 113 100 85 65 68 62 66 74 82 85 83 80 72 71 67 83 111 56 13 262 221 209 196 209 233 241 249 241 233 229
341 283 252 250 177 253 236 230 233 116 157 134 134 44 11 9 350 358 297 100 24 351 30 107 123 132 155 154 151 154 136 120 86 62 39 54 58 63 119 119 117 114 113 114 108 100 88 91 94 94 90 83 88 88 88 90 93 95 93 86 76 77 68 68 63 67 81 86 83 87 89 85 79 72 67 63 54 53 186 195 200 211 212 234 227 219
358 313 22 283 186 255 258 240 218 228 235 116 67 82 43 5 311 295 278 260 357 346 104 123 140 152 147 157 165 161 164 145 138 123 76 79 89 89 99 112 108 108 107 103 102 97 93 90 94 94 96 96 92 86 80 79 79 85 88 90 95 93 83 72 65 55 49 53 64 74 79 85 89 84 82 80 77 68 53 47 42 57 331 239 211 211
277 250 266 260 259 220 239 250 232 250 78 39 31 14 8 358 291 264 267 199 26 328 348 163 147 171 164 165 165 171 181 180 165 143 138 123 115 110 103 105 122 121 118 112 106 100 89 80 84 92 90 88 88 83 77 73 74 77 74 74 78 80 77 72 70 62 54 46 46 62 72 80 85 90 87 81 77 72 68 61 39 33 36 44 32 31
291 272 240 223 255 246 264 251 256 280 69 24 2 347 359 324 245 241 257 174 358 328 316 185 175 165 165 160 180 188 196 186 134 114 136 135 130 123 121 122 129 129 120 110 103 95 92 97 97 91 86 81 83 90 86 79 74 70 70 72 73 74 67 62 57 61 62 58 55 54 61 66 71 72 71 73 77 76 74 77 92 106 77 49 36 27
332 285 271 288 262 109 259 249 173 116 65 11 348 337 2 353 279 243 248 25 344 314 292 282 181 177 161 151 177 189 204 106 113 98 63 59 61 57 77 107 108 105 109 110 105 105 103 95 86 86 81 73 67 68 69 71 71 67 62 63 64 63 65 61 59 61 59 58 56 53 53 58 65 69 69 68 69 66 76 85 65 69 107 110 90 78
190 269 176 246 256 281 291 262 108 91 52 332 335 334 327 278 244 284 19 319 305 300 273 266 212 173 178 172 184 177 121 129 123 123 128 122 110 89 59 56 65 76 85 96 101 105 103 102 102 98 97 96 92 85 79 75 70 64 60 63 65 68 70 70 63 59 59 56 51 51 53 54 57 66 72 69 77 89 81 73 93 82 100 119 129 135
26 289 41 11 41 239 233 259 243 207 59 3 336 276 9 343 62 352 330 324 321 314 259 226 216 181 185 178 169 125 126 126 134 135 132 129 126 120 108 92 77 70 74 80 105 114 117 113 102 89 83 77 75 79 84 84 82 75 69 61 51 56 56 60 65 67 68 64 60 56 55 56 54 54 62 72 74 80 81 80 80 85 89 110 108 112
29 276 3 93 357 313 219 267 41 29 4 13 357 42 24 18 345 335 321 328 341 323 262 228 188 189 180 195 166 151 140 141 141 142 135 133 129 125 124 125 114 94 85 90 79 73 99 103 99 93 83 75 71 71 71 81 83 78 72 61 42 46 51 59 65 71 77 75 67 62 58 57 57 55 56 52 62 71 76 76 81 86 87 95 113 113
62 348 358 352 37 327 14 34 57 25 19 33 20 45 25 1 345 325 310 302 320 351 334 261 205 201 186 213 156 148 148 152 145 143 127 128 131 134 135 138 133 123 105 59 39 34 44 91 97 91 87 78 71 65 72 80 87 85 74 63 51 46 47 48 51 53 58 59 68 74 72 68 67 61 53 57 57 57 60 59 53 60 55 63 72 73
104 11 344 274 108 43 127 16 103 126 48 39 84 50 18 14 18 352 354 345 17 350 309 303 161 213 172 180 146 121 95 98 126 140 138 136 130 126 132 131 128 122 115 118 127 122 110 74 74 82 76 72 72 71 58 64 73 75 68 58 47 50 48 49 50 50 46 58 55 45 57 79 84 74 67 61 59 58 53 55 55 50 41 51 60 55
121 168 223 265 64 280 147 132 105 72 73 49 56 99 68 36 27 13 15 5 8 3 13 27 20 138 155 128 125 109 135 124 74 110 126 149 154 148 144 144 150 152 152 145 135 116 75 76 73 63 59 55 38 48 62 57 67 80 88 76 80 66 43 45 49 48 47 45 58 63 47 33 25 48 65 46 61 67 59 55 67 68 55 51 45 53
163 180 264 247 284 269 47 99 88 82 86 47 20 53 47 39 33 31 31 30 31 37 35 75 113 137 141 144 143 165 165 146 127 110 123 119 134 152 150 147 155 154 141 135 148 160 142 113 102 92 74 49 34 33 34 54 61 58 46 56 53 63 66 54 28 39 33 36 35 35 41 58 43 9 53 56 40 40 43 48 45 59 56 39 27 20
70 190 262 81 266 358 161 142 126 132 113 88 78 56 45 28 32 42 36 44 49 58 66 70 74 140 152 142 152 159 164 160 151 152 158 132 127 129 121 115 97 102 116 131 147 138 112 120 118 120 114 91 58 30 36 40 43 51 52 45 49 59 55 57 64 47 47 39 47 47 26 38 48 27 29 65 81 75 41 19 23 33 67 50 26 7
225 244 156 234 251 249 314 98 168 255 173 110 74 60 48 40 43 49 48 48 48 52 54 74 94 116 148 149 154 164 169 165 159 153 160 161 170 149 124 113 90 86 113 129 148 131 117 107 113 119 110 99 90 83 65 40 40 41 44 45 43 37 51 53 56 65 53 30 29 27 26 24 47 43 6 24 42 84 106 59 47 32 11 69 60 45
239 304 269 258 277 357 75 88 65 84 80 59 64 62 49 36 47 55 54 51 51 54 58 72 87 104 128 173 189 187 176 168 170 174 174 171 172 174 176 150 124 116 92 260 171 149 136 135 145 140 131 123 118 102 96 91 71 52 44 37 36 38 51 42 39 30 47 32 33 15 346 7 23 33 35 15 16 19 41 142 114 94 96 77 77 67